This is the latest recevied weather packets stored in our database for station/object KD7JB. If no packets are shown the sender has not sent any weather packets the latest 10 day(s).
| Time | Temp. | Humidity | Pressure | Rain* | Wind** | Luminosity | Snow |
|---|---|---|---|---|---|---|---|
| 1777767185 | 20° C | 37% | 1177.8 hPa | 0 mm | - | 319 W/m² | - |
| 1777766883 | 20° C | 38% | 1177.8 hPa | 0 mm | - | 321 W/m² | - |
| 1777766580 | 19.44° C | 38% | 1177.6 hPa | 0 mm | - | 321 W/m² | - |
| 1777766277 | 18.89° C | 39% | 1177.8 hPa | 0 mm | - | 292 W/m² | - |
| 1777765975 | 18.89° C | 40% | 1177.8 hPa | 0 mm | - | 306 W/m² | - |
| 1777765671 | 19.44° C | 38% | 1177.8 hPa | 0 mm | - | 263 W/m² | - |
| 1777765368 | 19.44° C | 39% | 1178 hPa | 0 mm | - | 224 W/m² | - |
| 1777765064 | 19.44° C | 39% | 1178 hPa | 0 mm | - | 302 W/m² | - |
| 1777764761 | 20° C | 40% | 1177.9 hPa | 0 mm | - | 350 W/m² | - |
| 1777764457 | 19.44° C | 39% | 1178 hPa | 0 mm | - | 351 W/m² | - |
| 1777764154 | 19.44° C | 39% | 1178.1 hPa | 0 mm | - | 364 W/m² | - |
| 1777763851 | 19.44° C | 40% | 1178.1 hPa | 0 mm | - | 445 W/m² | - |
| 1777763548 | 20° C | 39% | 1178 hPa | 0 mm | - | 237 W/m² | - |
| 1777763247 | 20° C | 39% | 1178.2 hPa | 0 mm | - | 597 W/m² | - |
| 1777762945 | 20° C | 37% | 1178.1 hPa | 0 mm | - | 543 W/m² | - |
| 1777762640 | 20.56° C | 41% | 1178.3 hPa | 0 mm | - | 527 W/m² | - |
| 1777762338 | 20° C | 37% | 1178.4 hPa | 0 mm | - | 582 W/m² | - |
| 1777762034 | 20° C | 38% | 1178.4 hPa | 0 mm | - | 586 W/m² | - |
| 1777761731 | 20° C | 40% | 1178.4 hPa | 0 mm | - | 592 W/m² | - |
| 1777761428 | 20° C | 39% | 1178.4 hPa | 0 mm | - | 614 W/m² | - |
| 1777761127 | 20° C | 38% | 1178.4 hPa | 0 mm | - | 621 W/m² | - |
| 1777760824 | 20° C | 39% | 1178.4 hPa | 0 mm | - | 615 W/m² | - |
| 1777760520 | 19.44° C | 39% | 1178.7 hPa | 0 mm | - | 598 W/m² | - |
| 1777760216 | 18.89° C | 40% | 1178.7 hPa | 0 mm | - | 599 W/m² | - |
| 1777759913 | 19.44° C | 40% | 1178.8 hPa | 0 mm | - | 609 W/m² | - |
* Rain latest hour (hover to see other rain measurements)
** Current wind speed in m/s (hover to see current wind gust speed)